Regional Weather Roundup
Issued by NWS

Home | Current Version | Previous Version | Graphics & Text | Print | Product List | Glossary On
Versions: 1 2 3 4 5 6 7 8 9 10 11 12 13 14 15 16 17 18 19 20 21 22 23 24 25 26 27 28 29 30 31 32 33 34 35 36 37 38 39 40 41 42 43 44 45 46 47 48 49 50
902
ASUS44 KMEG 261800
RWRTN
TENNESSEE HOURLY STATE WEATHER ROUNDUP
NATIONAL WEATHER SERVICE MEMPHIS TN
100 PM CDT THU MAY 26 2016

TNZ002-004-019-021-049-052-054-088>092-261900-
WEST TENNESSEE

CITY           SKY/WX    TMP DP  RH WIND       PRES   REMARKS
MEMPHIS INTL   PTSUNNY   88  72  58 SW6       30.03F HX  94
NWS MEMPHIS      N/A     88 N/A N/A MISG        N/A
JACKSON        MOSUNNY   86  73  65 SW8       30.04F HX  93
DYERSBURG      MOSUNNY   84  72  65 SW8       30.00F
UNION CITY     CLOUDY    82  73  74 S6        30.01F
PARIS          MOSUNNY   84  72  65 S9        30.03F
LEXINGTON      MOSUNNY   84  73  70 S8        30.04F HX  91
$$

TNZ008-025-027-028-033-062-065-066-261900-
NORTH MIDDLE TENNESSEE

CITY           SKY/WX    TMP DP  RH WIND       PRES   REMARKS
NASHVILLE      PTSUNNY   87  66  49 S9        30.07F
CLARKSVILLE    RAIN      80  73  79 SW7       30.04F
COOKEVILLE     MOSUNNY   84  68  58 S10       30.11F
CROSSVILLE     MOSUNNY   80  62  54 VRB5      30.18F
$$

TNZ061-075-076-078-094-096-097-261900-
SOUTH MIDDLE TENNESSEE

CITY           SKY/WX    TMP DP  RH WIND       PRES   REMARKS
TULLAHOMA      MOSUNNY   84  61  45 S8        30.14S
WINCHESTER     PTSUNNY   84  63  48 SW6       30.13F
MCMINNVILLE    SUNNY     86  66  51 VRB6      30.13F
COLUMBIA       MOSUNNY   88  73  62 S8        30.06F HX  96
SHELBYVILLE    MOSUNNY   90  64  43 S12       30.11F HX  91
$$

TNZ017-018-042-046-047-261900-
NORTHEAST TENNESSEE

CITY           SKY/WX    TMP DP  RH WIND       PRES   REMARKS
TRI CITIES     LGT RAIN  72  65  78 W8        30.23S
$$

TNZ012-013-036-069-073-074-261900-
CENTRAL EAST TENNESSEE

CITY           SKY/WX    TMP DP  RH WIND       PRES   REMARKS
KNOXVILLE      PTSUNNY   77  65  66 E10       30.18F
OAK RIDGE      SUNNY     79  63  57 VRB5      30.19F
GATLINBURG     MOSUNNY   70  64  83 SE6       30.20F
$$

TNZ083-085-099-261900-
SOUTHEAST TENNESSEE

CITY           SKY/WX    TMP DP  RH WIND       PRES   REMARKS
CHATTANOOGA    MOSUNNY   87  59  38 VRB7      30.12F
$$

SKY/WX REPORTED AS FAIR MEANS FEW OR NO CLOUDS BELOW
12 THOUSAND FEET.





USA.gov is the U.S. government's official web portal to all federal, state and local government web resources and services.